This demonstration page uses our WeatherBlox Daily Observations layout. Learn more.

41.55636, -103.73856

Hourly Observations for May 12, 2015

Temp ( °F °C ) Dew Point ( °F °C ) Humidity (%) Winds ( mph kmh ) Pressure ( in mb ) Visibility ( mi km ) Precip ( " mm )
12:53 am 00:53 Clear 34 1 30 -1 87 87 E 7 11 30.24 1024 10 16.09344 0 0
1:53 am 01:53 Clear 34 1 30 -1 87 87 E 6 9 30.24 1024 10 16.09344 0 0
2:53 am 02:53 Clear 36 2 30 -1 81 81 ESE 9 15 30.21 1023 10 16.09344 0 0
3:53 am 03:53 Clear 34 1 28 -2 81 81 ESE 8 13 30.24 1024 10 16.09344 0 0
4:53 am 04:53 Clear 36 2 28 -2 75 75 ESE 12 19 30.21 1023 10 16.09344 0 0
5:53 am 05:53 Sunny 36 2 28 -2 75 75 ESE 14 22 30.18 1022 10 16.09344 0 0
6:53 am 06:53 Sunny 37 3 30 -1 75 75 E 14 22 30.15 1021 10 16.09344 0 0
7:53 am 07:53 Sunny 43 6 32 0 66 66 E 13 20 30.12 1020 10 16.09344 0 0
8:53 am 08:53 Sunny 50 10 30 -1 47 47 SSE 18 30 30.03 1017 10 16.09344 0 0
9:53 am 09:53 Sunny 50 10 34 1 54 54 SSE 14 22 30.03 1017 10 16.09344 0 0
10:53 am 10:53 Sunny 54 12 37 3 54 54 SSE 12 19 29.94 1014 10 16.09344 0 0
11:53 am 11:53 Sunny 57 14 39 4 51 51 SE 14 22 29.91 1013 10 16.09344 0 0
12:53 pm 12:53 Sunny 63 17 45 7 52 52 SE 17 28 29.85 1011 10 16.09344 0 0
1:53 pm 13:53 Sunny 66 19 46 8 49 49 SE 16 26 29.8 1009 10 16.09344 0 0
2:53 pm 14:53 Sunny 73 23 48 9 41 41 SE 15 24 29.71 1006 10 16.09344 0 0
3:53 pm 15:53 Sunny 75 24 45 7 34 34 SSE 16 26 29.68 1005 10 16.09344 0 0
4:53 pm 16:53 Sunny 77 25 45 7 32 32 SSE 16 26 29.65 1004 10 16.09344 0 0
5:53 pm 17:53 Sunny 75 24 45 7 34 34 S 14 22 29.65 1004 10 16.09344 0 0
6:53 pm 18:53 Sunny 72 22 46 8 41 41 SSE 10 17 29.68 1005 10 16.09344 0 0
7:53 pm 19:53 Sunny 64 18 48 9 56 56 SE 8 13 29.74 1007 10 16.09344 0 0
8:53 pm 20:53 Clear 63 17 46 8 56 56 SE 12 19 29.74 1007 10 16.09344 0 0
9:53 pm 21:53 Clear 61 16 46 8 59 59 ESE 8 13 29.77 1008 10 16.09344 0 0
10:53 pm 22:53 Clear 55 13 46 8 72 72 ESE 12 19 29.8 1009 10 16.09344 0 0
11:53 pm 23:53 Clear 55 13 45 7 67 67 ESE 10 17 29.8 1009 10 16.09344 0 0

Powered by AerisWeather